Location: Bakov nad Jizerou
(50.4784°N, 14.9394°E)
Time: 03:36:21
(UTC+00:00)

Cosmos 1727 Rocket - Pass Details

Date: 02 November 2021
Orbit: 960 x 997 km, 82.9° (Epoch: 07 December)

Event Time Altitude Azimuth Distance (km) Brightness Sun altitude
Rises 04:15:44 0° 187° (S) 3,685 7.0 -15.8°
Reaches altitude 10° 04:18:15 10° 188° (S) 2,735 6.3 -15.4°
Maximum altitude 04:24:32 90° 281° (W) 986 4.0 -14.4°
Drops below altitude 10° 04:30:49 10° 10° (N) 2,728 6.4 -13.4°
Sets 04:33:19 0° 10° (N) 3,675 7.1 -13.0°
